Location: Wien
(48.2082°N, 16.3738°E)
Time: 18:00:14
(UTC+02:00)

DOVE 4 - Pass Details

Date: 30 March 2019
Orbit: 587 x 804 km, 97.7° (Epoch: 26 April)

Event Time Altitude Azimuth Distance (km) Brightness Sun altitude
Rises 04:23:51 0° 1° (N) 2,899 ? -12.8°
Reaches altitude 10° 04:26:27 10° 346° (NNW) 1,963 ? -12.4°
Maximum altitude 04:29:39 21° 297° (WNW) 1,345 ? -11.9°
Enters shadow 04:31:26 16° 263° (W) 1,551 ? -11.6°
